[[{"header":{"parameterUnit":"m.s-1","parameterCategory":1,"la1":30.2992,"la2":30.254,"lo1":-89.0895,"lo2":-89.0443,"dy":0.0025,"dx":0.0025,"nx":19,"ny":19,"refTime":"2026-05-24T03:00:00:Z","depth":0,"parameterNumber":2,"parameterNumberName":"U-component_of_WINDS"},"data":[0,0,0,1.0552,1.0555,1.066,1.066,1.079,1.0792,0,0,0,0,0,0,0,0,0,0,0,1.0517,1.0518,1.0552,1.0555,1.066,1.066,1.079,1.0792,0,0,0,0,0,0,0,0,0,0,0,1.0517,1.0518,1.0519,1.0555,1.066,1.066,1.079,1.0713,0,0,0,0,0,0,0,0,0,0,1.0611,1.0575,1.0518,1.0519,1.0556,1.066,1.066,1.0709,1.0717,1.0741,0,1.0759,0,1.0777,1.08,1.08,0,0,0,1.0558,1.0568,1.0599,1.0519,1.0557,1.0659,1.0613,1.0714,1.0723,1.0752,1.0761,1.0766,1.0779,1.0801,1.0801,1.0923,1.0924,0,0,1.0552,1.0534,1.0593,1.0605,1.0587,1.061,1.0617,1.072,1.0729,1.0762,1.0769,1.0782,1.0802,1.0802,1.0923,1.0923,0,0,0,1.0533,1.053,1.056,1.06,1.0619,1.0613,1.0621,1.0724,1.0735,1.0771,1.0783,1.0802,1.0804,1.0922,1.0923,1.0927,0,0,0,1.053,1.0519,1.0557,1.0547,1.0617,1.0673,1.0623,1.0728,1.074,1.0782,1.0802,1.0805,1.0922,1.0923,1.0926,1.0932,0,0,0,1.0512,1.0517,1.0531,1.0546,1.059,1.0671,1.0688,1.0731,1.0748,1.08,1.0805,1.0922,1.0923,1.0925,1.0931,1.096,0,0,0,1.0488,1.0532,1.0531,1.0586,1.0589,1.0672,1.0688,1.0751,1.0796,1.0803,1.0922,1.0923,1.0925,1.093,1.0959,1.0982,1.099,0,0,1.0534,1.0537,1.0571,1.0573,1.0651,1.0658,1.0738,1.0797,1.0818,1.0887,1.0891,1.0926,1.093,1.096,1.1038,1.1044,0,0,0,1.058,1.0604,1.0629,1.0671,1.0717,1.0757,1.0805,1.0828,1.0887,1.085,1.0945,1.0948,1.0966,1.0978,1.0983,1.1001,1.0927,1.0927,1.0927,1.0621,1.0646,1.0704,1.0742,1.0783,1.0833,1.087,1.0908,1.0921,1.0943,1.0964,1.1008,1.1022,1.1026,1.1044,1.0978,1.0978,1.0978,1.0978,1.0692,1.0731,1.0748,1.0811,1.0838,1.0892,1.0942,1.095,1.1005,1.0994,1.1012,1.0998,1.1032,1.1049,1.0979,1.0978,1.0978,1.0978,1.0978,1.0722,1.0746,1.0771,1.0836,1.0884,1.0921,1.0974,1.0996,1.1018,1.1035,1.1061,1.1061,1.1065,1.1045,1.1046,1.1046,1.1046,1.1046,1.1046,1.0744,1.0773,1.0814,1.0867,1.0898,1.0942,1.0993,1.1025,1.1066,1.1079,1.1079,1.1092,1.1029,1.1014,1.1049,1.1048,1.1048,1.1048,1.1047,1.0809,1.0798,1.0861,1.0892,1.0958,1.1004,1.1033,1.1096,1.1125,1.1151,1.116,1.1109,1.1115,1.1111,1.1098,1.1153,1.1153,1.1153,1.1153,1.0836,1.084,1.0911,1.0959,1.1009,1.1042,1.1114,1.1156,1.1197,1.1217,1.1213,1.1198,1.1193,1.1201,1.1195,1.1184,1.1259,1.1259,1.1259,1.0878,1.0889,1.0945,1.0985,1.1038,1.1084,1.1153,1.121,1.1255,1.1264,1.1234,1.123,1.1206,1.1197,1.1206,1.1196,1.1176,0,0]},{"header":{"parameterUnit":"m.s-1","parameterCategory":1,"la1":30.2992,"la2":30.254,"lo1":-89.0895,"lo2":-89.0443,"dy":0.0025,"dx":0.0025,"nx":19,"ny":19,"refTime":"2026-05-24T03:00:00:Z","depth":0,"parameterNumber":3,"parameterNumberName":"V-component_of_WINDS"},"data":[0,0,0,0.1985,0.1986,0.2046,0.2046,0.2119,0.212,0,0,0,0,0,0,0,0,0,0,0,0.1962,0.1963,0.1985,0.1986,0.2046,0.2046,0.2119,0.212,0,0,0,0,0,0,0,0,0,0,0,0.1962,0.1962,0.1963,0.1986,0.2046,0.2046,0.2119,0.2076,0,0,0,0,0,0,0,0,0,0,0.2018,0.1992,0.1962,0.1963,0.1987,0.2046,0.2046,0.2074,0.2078,0.2089,0,0.2096,0,0.2109,0.2124,0.2124,0,0,0,0.199,0.1988,0.2008,0.1963,0.1987,0.2046,0.202,0.2076,0.2082,0.2096,0.2097,0.21,0.211,0.2125,0.2125,0.2171,0.2171,0,0,0.1987,0.1971,0.2005,0.2012,0.1999,0.2018,0.2022,0.208,0.2081,0.2097,0.2102,0.2111,0.2125,0.2125,0.2171,0.2171,0,0,0,0.1975,0.1968,0.1988,0.2008,0.2019,0.202,0.2024,0.2079,0.2086,0.2103,0.2112,0.2125,0.2126,0.2171,0.2171,0.2156,0,0,0,0.1973,0.1961,0.1986,0.1977,0.2018,0.2049,0.2022,0.2082,0.2089,0.2112,0.2125,0.2127,0.2171,0.2171,0.2156,0.2152,0,0,0,0.196,0.196,0.1967,0.1976,0.2001,0.2049,0.206,0.2084,0.2095,0.2124,0.2127,0.2171,0.2171,0.2157,0.2152,0.2159,0,0,0,0.1942,0.1953,0.1966,0.1982,0.2,0.2038,0.2059,0.2089,0.2113,0.2126,0.2171,0.2171,0.2157,0.2153,0.2159,0.2162,0.2161,0,0,0.1947,0.1953,0.1964,0.1977,0.2008,0.203,0.2061,0.2098,0.2117,0.2153,0.2154,0.2156,0.2152,0.2159,0.2164,0.2163,0,0,0,0.196,0.1967,0.1979,0.2,0.2028,0.2053,0.2087,0.2102,0.2133,0.2131,0.2161,0.2159,0.2164,0.2166,0.2166,0.2171,0.2171,0.2171,0.2171,0.1944,0.1966,0.1985,0.2015,0.2035,0.2071,0.209,0.2116,0.2133,0.214,0.215,0.215,0.2152,0.2152,0.2157,0.2154,0.2154,0.2154,0.2154,0.1953,0.1967,0.1989,0.2016,0.204,0.2063,0.2099,0.2111,0.2137,0.2144,0.2149,0.2154,0.215,0.2156,0.2153,0.2153,0.2153,0.2153,0.2153,0.1945,0.1955,0.1971,0.2005,0.2028,0.2059,0.2083,0.2105,0.2126,0.2131,0.2145,0.2145,0.2149,0.2136,0.2136,0.2136,0.2136,0.2136,0.2136,0.1929,0.1948,0.1965,0.1996,0.2013,0.2038,0.2075,0.2093,0.2119,0.2133,0.2133,0.215,0.2145,0.2144,0.2136,0.2136,0.2136,0.2136,0.2136,0.193,0.1933,0.1959,0.1975,0.2015,0.2037,0.2065,0.21,0.2118,0.213,0.2146,0.2139,0.2147,0.2148,0.2147,0.2141,0.2141,0.2141,0.2141,0.1922,0.1928,0.196,0.1985,0.2013,0.2041,0.2072,0.2102,0.2134,0.2147,0.2151,0.2151,0.2151,0.216,0.216,0.2159,0.2157,0.2157,0.2157,0.1924,0.1934,0.1954,0.1984,0.2016,0.2045,0.2075,0.2106,0.2143,0.2158,0.2158,0.2157,0.2158,0.2157,0.2171,0.2171,0.217,0,0]}]]